Location: Tabor
(49.4170°N, 14.6670°E)
Time: 02:36:38
(UTC+02:00)

ISS - Visible Passes

Search period start: 17 October 2019 00:00
Search period end: 27 October 2019 00:00
Orbit: 411 x 421 km, 51.6° (Epoch: 16 October)

Date Brightness Start Highest point End Pass type
(mag) Time Alt. Az. Time Alt. Az. Time Alt. Az.
24 Oct -1.0 06:50:09 10° S 06:52:34 19° SE 06:55:00 10° E visible
25 Oct -0.7 06:02:47 10° SSE 06:04:13 12° SE 06:05:38 10° ESE visible
26 Oct -2.4 06:48:44 10° SW 06:51:53 38° SSE 06:55:02 10° E visible
